Location: Lucerne Valley
(34.4439°N, 116.9669°E)
Time: 20:35:02
(UTC-07:00)

Tiangong 2 - Pass Details

Date: 13 October 2017
Orbit: 388 x 392 km, 42.8° (Epoch: 19 October)

Event Time Altitude Azimuth Distance (km) Brightness Sun altitude
Exits shadow 13:39:52 19° 3° (N) 1,006 3.2 -20.7°
Drops below altitude 10° 13:41:52 10° 41° (NE) 1,419 4.5 -20.3°
Sets 13:44:20 0° 60° (ENE) 2,276 6.1 -19.8°
